[[{"header":{"parameterUnit":"m.s-1","parameterCategory":1,"la1":30.2991,"la2":30.254,"lo1":-89.0895,"lo2":-89.0444,"dy":0.0017,"dx":0.0017,"nx":28,"ny":28,"refTime":"2023-06-26T21:00:00:Z","depth":0,"parameterNumber":2,"parameterNumberName":"U-component_of_WINDS"},"data":[0,0,0,0,0,0,0,0,0,0,0,0,0,0,0,0,0,0,0,0,0,0,0,0,0,0,0,0,0,0,0,0,0,0,0,0,0,0,0,0,0,0,0,0,0,0,0,0,0,0,0,0,0,0,0,0,0,0,0.1667,0.1668,0,0.1774,0.1775,0.1776,0.182,0.182,0.1819,0.1819,0.1933,0.1937,0.194,0,0,0,0,0,0,0,0,0,0,0,0,0,0.1506,0.1508,0.1667,0.1668,0.167,0.1774,0.1775,0.1777,0.182,0.182,0.1819,0.1819,0.1932,0.1936,0.194,0,0,0,0,0,0,0,0,0,0,0,0,0,0.159,0.1509,0.1667,0.1704,0.1708,0.1773,0.1775,0.1777,0.182,0.182,0.1819,0.1819,0.1931,0.1936,0.1941,0.1979,0,0,0.1956,0.1958,0,0,0,0,0,0,0,0,0.1586,0.1596,0.1697,0.1701,0.1706,0.1783,0.176,0.1845,0.182,0.1778,0.1819,0.1819,0.1884,0.1893,0.1914,0.1984,0.1989,0.1956,0.1959,0.1961,0.1963,0,0,0,0,0,0,0,0.158,0.1592,0.1709,0.1698,0.1704,0.1717,0.1728,0.1776,0.1832,0.1781,0.1785,0.1796,0.1887,0.1909,0.1917,0.1991,0.1956,0.196,0.1963,0.1965,0.2099,0.2099,0,0,0,0,0,0,0.1567,0.1587,0.1706,0.1713,0.1644,0.172,0.1733,0.1759,0.1831,0.1842,0.1797,0.1798,0.1901,0.1911,0.1921,0.1971,0.1961,0.1966,0.1969,0.2098,0.2099,0.2099,0,0,0,0,0,0,0.1563,0.1577,0.1702,0.1651,0.1667,0.1723,0.1752,0.1761,0.1784,0.1843,0.1854,0.1809,0.1901,0.1914,0.1964,0.1975,0.1968,0.1973,0.2097,0.2098,0.2099,0.207,0,0,0,0,0,0,0.1559,0.1576,0.1589,0.1651,0.167,0.1741,0.1753,0.1764,0.1791,0.1794,0.1857,0.1868,0.1902,0.1956,0.1969,0.1982,0.1976,0.2097,0.2098,0.2099,0.207,0.207,0.207,0,0,0,0,0,0.1553,0.1578,0.159,0.1604,0.1688,0.1742,0.1753,0.179,0.1792,0.1807,0.1845,0.1866,0.1972,0.1961,0.1975,0.199,0.2096,0.2097,0.2099,0.2071,0.207,0.207,0,0,0,0,0,0,0.1518,0.1586,0.16,0.1646,0.1687,0.1749,0.1769,0.1788,0.1831,0.1832,0.1878,0.1892,0.1939,0.197,0.1956,0.2032,0.2036,0.204,0.2009,0.2009,0.2009,0.2001,0.198,0,0,0,0,0,0.1515,0.1551,0.161,0.1645,0.1664,0.1713,0.1738,0.1763,0.1808,0.1827,0.1869,0.1913,0.1957,0.1985,0.2029,0.2075,0.209,0.2093,0.2092,0.2092,0.2095,0.2123,0.2125,0.2104,0.2104,0.2104,0,0,0.1511,0.1553,0.1573,0.1639,0.1674,0.1712,0.1727,0.1767,0.1796,0.1833,0.1882,0.1915,0.1968,0.2016,0.204,0.2044,0.2104,0.2093,0.2092,0.2096,0.2125,0.2127,0.2128,0.2105,0.2105,0.2104,0,0,0.1522,0.1556,0.1589,0.1624,0.1676,0.1709,0.1716,0.1775,0.1798,0.1847,0.1876,0.1913,0.1986,0.2023,0.2052,0.2077,0.2098,0.2091,0.2089,0.2116,0.2117,0.2119,0.2129,0.2132,0.2094,0.2094,0.2094,0,0.151,0.1566,0.1604,0.1642,0.1671,0.1704,0.1739,0.1771,0.1836,0.1856,0.1859,0.1953,0.1991,0.2049,0.2055,0.2077,0.2088,0.2084,0.2114,0.2116,0.2118,0.2128,0.2132,0.2092,0.2092,0.2093,0.2093,0,0.155,0.1589,0.1609,0.1669,0.17,0.1736,0.1781,0.1808,0.1831,0.1863,0.1915,0.1961,0.2015,0.2031,0.2054,0.2093,0.2093,0.2104,0.211,0.2118,0.2128,0.2132,0.2091,0.2091,0.2091,0.2092,0,0,0.1541,0.1622,0.1629,0.1657,0.1717,0.1749,0.1788,0.1839,0.1862,0.1906,0.194,0.2002,0.2012,0.2045,0.2072,0.2096,0.2114,0.2104,0.2106,0.2105,0.2161,0.2152,0.2156,0.2128,0.2129,0.2129,0.2157,0,0.1561,0.1629,0.1665,0.1718,0.1756,0.1789,0.1823,0.1864,0.1896,0.1934,0.1969,0.2013,0.2023,0.2043,0.2067,0.2106,0.2126,0.2105,0.2162,0.2163,0.2147,0.2161,0.2153,0.2176,0.2161,0.2161,0.2162,0,0.1593,0.1635,0.1692,0.1749,0.1766,0.1795,0.1845,0.1881,0.1929,0.1951,0.1987,0.2014,0.2057,0.2059,0.212,0.2105,0.2131,0.2154,0.2156,0.2163,0.2163,0.2169,0.2184,0.2188,0.2169,0.2168,0.2168,0,0.1582,0.1653,0.1696,0.1719,0.1787,0.1807,0.1836,0.1884,0.1913,0.1958,0.1977,0.2026,0.2054,0.2092,0.2133,0.213,0.2191,0.2195,0.2211,0.221,0.2222,0.2221,0.2242,0.2238,0.2238,0.2238,0.2238,0,0.16,0.1634,0.1692,0.1719,0.1759,0.18,0.1838,0.187,0.1913,0.1948,0.198,0.2013,0.2064,0.2103,0.2135,0.2182,0.2194,0.2214,0.2222,0.2211,0.2208,0.2229,0.2228,0.2239,0.2238,0.2238,0.2238,0,0.1594,0.1635,0.1684,0.1744,0.176,0.1786,0.1838,0.1867,0.19,0.1943,0.1956,0.2009,0.2057,0.2101,0.2165,0.2187,0.2234,0.2244,0.2217,0.2222,0.2235,0.2233,0.227,0.2277,0.2267,0.2267,0.2267,0,0.1604,0.163,0.1692,0.1717,0.1746,0.1786,0.1815,0.1857,0.1887,0.1944,0.1966,0.2016,0.2058,0.2134,0.2179,0.2229,0.2241,0.225,0.2248,0.2237,0.2242,0.224,0.2243,0.225,0.225,0.2249,0.2249,0,0.1616,0.1634,0.1674,0.1722,0.1756,0.1795,0.1836,0.1855,0.1906,0.1937,0.1986,0.2019,0.2084,0.2134,0.2188,0.2221,0.2244,0.2249,0.2256,0.2245,0.2228,0.2238,0.2216,0.2248,0.2249,0.2249,0.2249,0.2249,0.1618,0.1644,0.1692,0.1736,0.1771,0.1808,0.1838,0.1874,0.1915,0.197,0.1993,0.2043,0.2093,0.2168,0.22,0.2241,0.2246,0.2255,0.2257,0.2259,0.2257,0.2221,0.2251,0.2251,0.2251,0.2251,0.2251,0,0.1633,0.1665,0.1705,0.1761,0.1796,0.1813,0.1859,0.1888,0.1931,0.1974,0.2015,0.2072,0.212,0.2169,0.2221,0.2244,0.2256,0.2256,0.2255,0.2262,0.225,0.2239,0.2245,0.2245,0.2245,0.2245,0.2245,0.2245,0.1644,0.1688,0.1713,0.1775,0.1808,0.1856,0.1881,0.1917,0.1952,0.2013,0.2053,0.2084,0.213,0.2185,0.2231,0.2245,0.2262,0.226,0.2276,0.2263,0.2263,0.2263,0.2254,0.2263,0.2263,0.2286,0.2286,0.2286]},{"header":{"parameterUnit":"m.s-1","parameterCategory":1,"la1":30.2991,"la2":30.254,"lo1":-89.0895,"lo2":-89.0444,"dy":0.0017,"dx":0.0017,"nx":28,"ny":28,"refTime":"2023-06-26T21:00:00:Z","depth":0,"parameterNumber":3,"parameterNumberName":"V-component_of_WINDS"},"data":[0,0,0,0,0,0,0,0,0,0,0,0,0,0,0,0,0,0,0,0,0,0,0,0,0,0,0,0,0,0,0,0,0,0,0,0,0,0,0,0,0,0,0,0,0,0,0,0,0,0,0,0,0,0,0,0,0,0,3.0216,3.0216,0,3.0219,3.0219,3.0219,3.0194,3.0193,3.0192,3.0192,3.0194,3.0195,3.0195,0,0,0,0,0,0,0,0,0,0,0,0,0,3.0187,3.0188,3.0216,3.0216,3.0216,3.0219,3.0219,3.0219,3.0194,3.0193,3.0192,3.0191,3.0194,3.0194,3.0195,0,0,0,0,0,0,0,0,0,0,0,0,0,3.0196,3.0188,3.0216,3.0204,3.0203,3.0219,3.0219,3.0219,3.0194,3.0193,3.0192,3.0191,3.0193,3.0194,3.0195,3.0222,0,0,3.0199,3.0199,0,0,0,0,0,0,0,0,3.0195,3.0197,3.0206,3.0205,3.0204,3.0205,3.0209,3.022,3.0194,3.0197,3.0192,3.0191,3.0198,3.0199,3.0202,3.0223,3.0223,3.0199,3.0199,3.02,3.02,0,0,0,0,0,0,0,3.0195,3.0196,3.0217,3.0206,3.0204,3.0198,3.0198,3.0211,3.0204,3.0197,3.0195,3.0196,3.0197,3.0201,3.0201,3.0223,3.0199,3.02,3.02,3.0201,3.0264,3.0265,0,0,0,0,0,0,3.0196,3.0196,3.0217,3.0217,3.0197,3.0199,3.0199,3.0205,3.0203,3.0202,3.0197,3.0195,3.0199,3.02,3.0201,3.0232,3.02,3.0201,3.0201,3.0263,3.0264,3.0265,0,0,0,0,0,0,3.0195,3.0198,3.0217,3.0206,3.0208,3.0201,3.0208,3.0206,3.0209,3.0203,3.0202,3.0202,3.0199,3.02,3.0217,3.0232,3.0201,3.0202,3.0262,3.0263,3.0265,3.0294,0,0,0,0,0,0,3.0195,3.0198,3.0209,3.0206,3.0209,3.0233,3.0209,3.0207,3.0211,3.0208,3.0207,3.0206,3.0198,3.0216,3.0218,3.0232,3.0203,3.026,3.0262,3.0264,3.0291,3.0296,3.03,0,0,0,0,0,3.0194,3.0217,3.0209,3.0212,3.0222,3.0234,3.0235,3.0225,3.0212,3.0223,3.0219,3.0206,3.023,3.0218,3.022,3.0235,3.0259,3.0262,3.0264,3.0289,3.0295,3.03,0,0,0,0,0,0,3.0221,3.0216,3.0208,3.0231,3.0233,3.023,3.0243,3.0232,3.0237,3.0235,3.0222,3.0222,3.0241,3.024,3.0226,3.026,3.0242,3.0245,3.026,3.0266,3.027,3.027,3.0204,0,0,0,0,0,3.023,3.0241,3.0236,3.0257,3.0258,3.025,3.0255,3.0247,3.0249,3.0249,3.0246,3.0248,3.0255,3.026,3.0267,3.0291,3.029,3.0302,3.0307,3.031,3.0313,3.0324,3.0329,3.0273,3.0273,3.0273,0,0,3.0248,3.0247,3.0255,3.0262,3.0263,3.0273,3.0251,3.0263,3.027,3.0251,3.0267,3.0265,3.0265,3.0285,3.0294,3.0285,3.0328,3.0313,3.0316,3.0317,3.0327,3.0332,3.0337,3.0275,3.0275,3.0274,0,0,3.0287,3.0288,3.0304,3.0305,3.0306,3.03,3.0304,3.0302,3.03,3.0315,3.03,3.0308,3.0322,3.0323,3.0325,3.0362,3.035,3.0364,3.0387,3.0398,3.0402,3.0406,3.0418,3.0423,3.0367,3.0367,3.0367,0,3.031,3.0325,3.0314,3.0327,3.033,3.0313,3.0329,3.033,3.0333,3.0335,3.0325,3.0341,3.034,3.0359,3.0368,3.0371,3.0374,3.0364,3.0402,3.0406,3.041,3.0421,3.0426,3.0369,3.0368,3.0368,3.0368,0,3.0352,3.0363,3.0376,3.0379,3.0384,3.0399,3.0389,3.0395,3.0387,3.0382,3.0397,3.0395,3.0401,3.0405,3.0397,3.0423,3.0417,3.0405,3.0386,3.0417,3.0427,3.0432,3.0371,3.037,3.037,3.037,0,0,3.0409,3.0405,3.041,3.041,3.0409,3.0417,3.043,3.0435,3.044,3.0442,3.0452,3.0464,3.0452,3.0454,3.0446,3.0456,3.0484,3.0442,3.0442,3.0449,3.0511,3.052,3.0525,3.0476,3.0477,3.0477,3.051,0,3.0446,3.0469,3.0459,3.0482,3.0491,3.0473,3.0485,3.0485,3.048,3.0487,3.0481,3.0489,3.0474,3.0475,3.0484,3.0478,3.0496,3.0476,3.0484,3.0485,3.0485,3.0531,3.0541,3.0572,3.0515,3.0515,3.0516,0,3.0493,3.0496,3.052,3.0516,3.0519,3.053,3.0533,3.0539,3.0538,3.0534,3.0536,3.0525,3.0537,3.0519,3.0534,3.0521,3.0523,3.0521,3.0522,3.0522,3.0502,3.0532,3.0582,3.0587,3.0522,3.0522,3.0521,0,3.0531,3.0542,3.0557,3.0558,3.0554,3.0561,3.0559,3.0557,3.0561,3.0563,3.0565,3.0569,3.0571,3.0574,3.0564,3.0552,3.058,3.0561,3.0577,3.0577,3.0583,3.0583,3.0634,3.0586,3.0586,3.0586,3.0586,0,3.0573,3.0588,3.0574,3.0583,3.0599,3.0587,3.0603,3.0599,3.0598,3.0605,3.0591,3.0598,3.0585,3.0591,3.0583,3.0596,3.0597,3.0594,3.0592,3.0595,3.0596,3.0597,3.0594,3.0587,3.0587,3.0586,3.0586,0,3.0618,3.0609,3.0625,3.0619,3.0618,3.063,3.0624,3.0632,3.0626,3.0636,3.0638,3.0628,3.0635,3.0625,3.063,3.0625,3.0643,3.0638,3.0643,3.0642,3.0657,3.0656,3.0711,3.0717,3.0665,3.0665,3.0666,0,3.0646,3.0657,3.0652,3.0656,3.0655,3.0662,3.0665,3.0653,3.0656,3.0655,3.0663,3.0668,3.0671,3.0682,3.0675,3.0679,3.0673,3.0692,3.0673,3.0676,3.0672,3.0672,3.0673,3.0696,3.0696,3.0697,3.0697,0,3.0695,3.0689,3.0694,3.0697,3.0701,3.0703,3.0704,3.0708,3.0695,3.0699,3.0705,3.0708,3.0712,3.0717,3.0719,3.0717,3.0705,3.0703,3.0707,3.071,3.0713,3.0711,3.0653,3.0702,3.0701,3.0701,3.0701,3.0701,3.0732,3.074,3.0738,3.0743,3.0742,3.0743,3.075,3.0744,3.0749,3.0752,3.0744,3.0751,3.0749,3.075,3.0749,3.0754,3.0745,3.0751,3.0752,3.0754,3.0756,3.0712,3.0754,3.0754,3.0754,3.0754,3.0754,0,3.078,3.0777,3.0782,3.0783,3.0787,3.0775,3.0774,3.0778,3.0785,3.0784,3.0787,3.0793,3.0797,3.0791,3.0793,3.0799,3.0793,3.08,3.08,3.0799,3.0764,3.076,3.0804,3.0804,3.0804,3.0804,3.0804,3.0804,3.0805,3.0819,3.0813,3.0825,3.0822,3.0829,3.083,3.083,3.0828,3.0836,3.0839,3.0834,3.083,3.0833,3.0836,3.0833,3.0835,3.0844,3.0839,3.0807,3.0802,3.0797,3.0793,3.0844,3.0844,3.0874,3.0875,3.0875]}]]